Location: Lucerne Valley
(34.4439°N, 116.9669°E)
Time: 08:27:01
(UTC-07:00)

Vanguard 2 - Visible Passes

Search period start: 22 October 2017 00:00
Search period end: 01 November 2017 00:00
Orbit: 554 x 2939 km, 32.9° (Epoch: 21 October)

Date Brightness Start Highest point End Pass type
(mag) Time Alt. Az. Time Alt. Az. Time Alt. Az.
22 Oct 12.0 12:15:16 10° SSE 12:22:00 13° SE 12:28:32 10° ESE visible
22 Oct 11.3 14:17:45 10° SSW 14:33:15 38° SSE 14:45:41 10° E visible
23 Oct 11.8 12:29:07 10° S 12:40:03 20° SE 12:50:24 10° E visible
23 Oct 11.1 14:34:56 10° SW 14:51:25 47° SSE 15:04:21 10° E visible
24 Oct 11.6 12:44:45 10° S 12:58:03 27° SE 13:10:28 10° E visible
24 Oct 10.8 14:52:29 10° SW 15:09:39 56° SSE 15:22:48 10° E visible
25 Oct 11.3 13:01:11 10° SSW 13:16:05 35° SE 13:29:46 10° E visible
26 Oct 11.7 11:14:41 10° SSE 11:23:13 16° SE 11:31:59 10° ESE visible
26 Oct 11.1 13:18:09 10° SSW 13:34:07 43° SSE 13:48:38 10° E visible
27 Oct 11.5 11:32:10 15° S 11:41:03 23° SE 11:52:59 10° E visible
27 Oct 10.9 13:35:29 10° SW 13:52:14 52° SSE 14:07:15 10° E visible
28 Oct 11.3 11:50:14 20° S 11:58:52 30° SE 12:12:45 10° E visible
28 Oct 10.7 13:53:09 10° SW 14:10:25 61° SSE 14:25:42 10° E visible
29 Oct 11.8 10:06:39 11° SE 10:06:42 11° SE 10:10:08 10° ESE visible
29 Oct 11.0 12:08:09 25° S 12:16:43 38° SE 12:31:55 10° E visible
29 Oct 10.6 14:11:04 10° WSW 14:28:41 69° SSE 14:44:04 10° E visible
30 Oct 11.5 10:24:28 17° SE 10:24:28 17° SE 10:33:55 10° E visible
30 Oct 10.8 12:25:57 29° SSW 12:34:40 47° SSE 12:50:44 10° E visible
30 Oct 10.5 14:29:11 10° WSW 14:47:03 76° SSE 15:02:25 10° E visible
31 Oct 11.3 10:42:09 24° SE 10:42:09 24° SE 10:54:31 10° E visible
31 Oct 10.6 12:43:37 32° SSW 12:52:42 56° SSE 13:09:20 10° E visible
31 Oct 10.5 14:47:27 10° WSW 15:05:30 81° S 15:20:44 10° E visible
